sat.trackr.live / text

‹ back to catalog

STARLINK-2530

NORAD 48303 · 2021-036AD

PAYLOAD ACTIVE UNKNOWN

§ Identity

Operator
Country
US
Launch date
2021-04-29
Launch site
AFETR
Launch vehicle
Mass (kg)
RCS (m²)

Purposes: comms

External: N2YO · Heavens-Above · Gunter

§ Orbital elements

Epoch: 2026-09-20T01:45:00.844416Z

Period
94.01 min
Inclination
53.1592°
Eccentricity
0.0001085
Mean motion
15.31691218 rev/d
Perigee alt
470.0 km
Apogee alt
471.5 km
Semi-major
6,848.9 km
B*
1.2200e-4
RAAN
263.8240°
Arg perigee
77.0811°
Mean anomaly
283.0311°
Rev number
29,800

§ Raw data

STARLINK-25301 48303U 21036AD  26263.07292644  .00003421  00000+0  12200-3 0  99902 48303  53.1592 263.8240 0001085  77.0811 283.0311 15.31691218298002

JSON: /api/v1/satellites/48303 · /tle

For live sub-satellite position, see the globe view (requires WebGL).

§ Visibility from observer

Set your observer location to see the next 7 days of passes ≥ 10°. The values pass through the URL so the page stays shareable.

No JS? Fill the form by hand. The geolocation button needs JavaScript.